Date String (YYYY-MM-DD hh:mm:ss) UTC,Instrument flags,Ambient pressure (hPa),Sample flow (lpm),Bypass flow (lpm),Sample temperature (°C),Ambient temperature (°C),ASC tube jacket temperature (°C),LED temperature (°C),Box temperature (°C),Sample RH (%),Span deviation,Mass concentration (μg/m³),Mass concentration (μg/m³),Mass concentration (μg/m³)
DateTimeUTC,F1_M11,P_M11,Q1_M11,Q2_M11,T1_M11,T2_M11,T3_M11,T4_M11,T5_M11,U1_M11,ZSPAN_M11,X0_M11,X2_M11,X1_M11
2022-08-17 14:00:00,,0833.7,5.01,0.00,30.0,27.7,00.0,38.9,31.6,32.7,0000.0,0010.90,0006.86,0006.17
2022-08-17 14:01:00,,0833.7,4.99,0.00,30.0,27.7,00.0,38.9,31.6,32.3,0000.0,0010.63,0006.83,0006.15
2022-08-17 14:02:00,,0833.7,4.99,0.00,29.9,27.8,00.0,38.9,31.6,33.4,0000.0,0010.46,0006.81,0006.14
2022-08-17 14:03:00,,0833.7,5.01,0.00,29.9,28.0,00.0,38.8,31.7,33.5,0000.0,0011.05,0006.84,0006.14
2022-08-17 14:04:00,,0833.7,5.00,0.00,29.9,28.1,00.0,38.8,31.7,33.5,0000.0,0011.21,0006.80,0006.14
2022-08-17 14:05:00,,0833.6,5.00,0.00,29.9,28.2,00.0,38.8,31.7,33.9,0000.0,0011.24,0006.81,0006.15
2022-08-17 14:06:00,,0833.7,5.00,0.00,29.9,28.3,00.0,38.8,31.7,33.9,0000.0,0011.51,0006.80,0006.16
2022-08-17 14:07:00,,0833.6,5.00,0.00,29.9,28.4,00.0,38.8,31.7,34.3,0000.0,0012.15,0006.78,0006.15
2022-08-17 14:08:00,,0833.6,5.00,0.00,29.9,28.5,00.0,38.7,31.7,34.5,0000.0,0012.75,0006.77,0006.15
2022-08-17 14:09:00,,0833.6,5.02,0.00,29.9,28.5,00.0,38.7,31.7,34.6,0000.2,0013.25,0006.80,0006.15
2022-08-17 14:10:00,,0833.6,4.99,0.00,29.9,28.6,00.0,38.7,31.8,34.5,0000.3,0013.23,0006.78,0006.17
2022-08-17 14:11:00,,0833.6,4.99,0.00,29.9,28.7,00.0,38.7,31.8,34.5,0000.4,0013.59,0006.83,0006.20
2022-08-17 14:12:00,,0833.6,5.01,0.00,29.9,28.7,00.0,38.7,31.8,33.7,0000.5,0013.65,0006.84,0006.24
2022-08-17 14:13:00,,0833.6,5.00,0.00,29.9,28.8,00.0,38.7,31.9,33.6,0000.2,0013.67,0006.88,0006.27
2022-08-17 14:14:00,,0833.6,4.99,0.00,30.0,28.8,00.0,38.7,31.9,34.0,0000.6,0013.07,0006.85,0006.31
2022-08-17 14:15:00,,0833.6,5.00,0.00,30.0,28.8,00.0,38.7,31.9,34.2,0000.7,0012.83,0006.91,0006.34
2022-08-17 14:16:00,,0833.6,5.00,0.00,30.0,28.9,00.0,38.7,31.9,34.2,0001.0,0013.17,0006.96,0006.36
2022-08-17 14:17:00,,0833.7,5.00,0.00,30.0,28.9,00.0,38.8,31.9,34.3,0001.0,0013.35,0007.02,0006.38
2022-08-17 14:18:00,,0833.7,5.00,0.00,30.0,28.9,00.0,38.8,31.9,34.7,0001.1,0012.55,0007.07,0006.41
2022-08-17 14:19:00,,0833.7,5.01,0.00,30.1,29.0,00.0,38.8,32.0,34.9,0000.9,0012.20,0007.12,0006.45
2022-08-17 14:20:00,,0833.7,5.00,0.00,30.2,29.0,00.0,38.8,32.0,34.7,0001.0,0012.58,0007.15,0006.49
2022-08-17 14:21:00,,0833.7,4.99,0.00,30.3,29.0,00.0,38.8,32.0,34.8,0001.1,0013.41,0007.21,0006.52
2022-08-17 14:22:00,,0833.7,5.00,0.00,30.3,29.0,00.0,38.8,32.0,34.3,0000.8,0013.09,0007.20,0006.54
2022-08-17 14:23:00,,0833.7,5.00,0.00,30.3,29.1,00.0,38.8,32.1,34.2,0000.1,0012.79,0007.24,0006.58
2022-08-17 14:24:00,,0833.7,5.00,0.00,30.4,29.1,00.0,38.9,32.1,34.0,0000.3,0013.04,0007.26,0006.59
2022-08-17 14:25:00,,0833.7,5.00,0.00,30.4,29.1,00.0,38.9,32.1,33.9,0000.4,0013.29,0007.34,0006.64
2022-08-17 14:26:00,,0833.7,5.00,0.00,30.4,29.1,00.0,38.9,32.1,33.9,0000.5,0013.31,0007.37,0006.68
2022-08-17 14:27:00,,0833.7,4.99,0.00,30.4,29.2,00.0,38.9,32.1,33.9,0000.3,0013.02,0007.39,0006.71
2022-08-17 14:28:00,,0833.6,5.01,0.00,30.4,29.2,00.0,39.0,32.1,33.6,0000.1,0012.82,0007.41,0006.74
2022-08-17 14:29:00,,0833.7,5.00,0.00,30.4,29.2,00.0,39.0,32.1,32.9,0000.1,0012.81,0007.42,0006.76
2022-08-17 14:30:00,,0833.7,4.98,0.00,30.4,29.0,00.0,39.0,32.1,32.6,-000.4,0012.83,0007.42,0006.77
2022-08-17 14:31:00,,0833.7,5.01,0.00,30.4,28.4,00.0,38.9,31.9,32.2,-000.7,0011.97,0007.44,0006.77
2022-08-17 14:32:00,,0833.7,4.99,0.00,30.3,27.8,00.0,38.9,31.8,31.8,-000.8,0011.30,0007.43,0006.75
2022-08-17 14:33:00,,0833.7,5.01,0.00,30.2,27.7,00.0,38.9,31.7,32.6,-000.5,0011.70,0007.45,0006.76
2022-08-17 14:34:00,,0833.7,4.99,0.00,30.1,27.7,00.0,38.9,31.6,33.5,0000.2,0011.74,0007.47,0006.77
2022-08-17 14:35:00,,0833.7,5.00,0.00,30.1,27.8,00.0,38.8,31.6,33.6,0000.1,0011.64,0007.51,0006.81
2022-08-17 14:36:00,,0833.7,5.00,0.00,30.0,27.9,00.0,38.8,31.7,33.7,0000.1,0011.67,0007.47,0006.80
2022-08-17 14:37:00,,0833.7,5.00,0.00,30.0,28.0,00.0,38.8,31.7,34.0,-000.3,0012.70,0007.44,0006.77
2022-08-17 14:38:00,,0833.7,5.00,0.00,30.0,28.1,00.0,38.8,31.7,34.0,-000.5,0012.92,0007.46,0006.79
2022-08-17 14:39:00,,0833.7,5.00,0.00,30.0,28.2,00.0,38.8,31.7,33.9,-000.1,0012.99,0007.43,0006.79
2022-08-17 14:40:00,,0833.7,5.00,0.00,30.0,28.3,00.0,38.8,31.7,33.6,-000.1,0013.22,0007.41,0006.76
2022-08-17 14:41:00,,0833.7,5.00,0.00,30.0,28.4,00.0,38.8,31.7,33.5,0000.2,0013.18,0007.39,0006.74
2022-08-17 14:42:00,,0833.7,5.00,0.00,30.0,28.5,00.0,38.8,31.8,36.3,0000.5,0013.75,0007.54,0006.91
2022-08-17 14:43:00,,0833.6,4.98,0.00,30.2,28.6,00.0,38.8,31.9,37.1,0000.8,0014.39,0007.87,0007.23
2022-08-17 14:44:00,,0833.7,5.01,0.00,30.5,28.6,00.0,38.8,32.1,34.7,0000.8,0014.34,0008.06,0007.40
2022-08-17 14:45:00,,0833.7,5.00,0.00,30.8,28.7,00.0,38.8,32.1,33.0,0000.5,0014.32,0008.07,0007.41
2022-08-17 14:46:00,,0833.6,5.00,0.00,31.0,28.8,00.0,38.8,32.1,33.0,0000.6,0014.32,0008.05,0007.42
2022-08-17 14:47:00,,0833.6,5.00,0.00,31.0,28.8,00.0,38.9,32.1,34.3,0000.7,0014.53,0008.16,0007.52
2022-08-17 14:48:00,,0833.6,5.00,0.00,31.1,28.9,00.0,39.0,32.1,34.7,0000.8,0014.12,0008.45,0007.78
2022-08-17 14:49:00,,0833.6,4.99,0.00,31.2,28.9,00.0,39.0,32.2,34.0,0000.8,0014.27,0008.67,0007.98
2022-08-17 14:50:00,,0833.6,5.00,0.00,31.3,28.9,00.0,39.1,32.2,33.7,0000.7,0014.38,0008.86,0008.16
2022-08-17 14:51:00,,0833.6,4.99,0.00,31.3,29.0,00.0,39.2,32.2,33.7,0001.1,0014.49,0009.10,0008.38
2022-08-17 14:52:00,,0833.6,5.00,0.00,31.3,29.0,00.0,39.2,32.2,33.9,0001.5,0015.03,0009.42,0008.68
2022-08-17 14:53:00,,0833.6,5.01,0.00,31.3,29.1,00.0,39.3,32.2,34.4,0001.3,0014.72,0009.54,0008.77
2022-08-17 14:54:00,,0833.6,5.00,0.00,31.3,29.1,00.0,39.4,32.3,34.3,0001.3,0014.92,0009.53,0008.72
2022-08-17 14:55:00,,0833.6,5.01,0.00,31.3,29.1,00.0,39.4,32.3,33.8,0001.3,0015.16,0009.59,0008.80
2022-08-17 14:56:00,,0833.6,5.00,0.00,31.2,29.2,00.0,39.4,32.3,33.6,0001.3,0015.42,0009.75,0008.97
2022-08-17 14:57:00,,0833.6,5.00,0.00,31.2,29.1,00.0,39.5,32.3,34.1,0001.4,0016.16,0009.93,0009.10
2022-08-17 14:58:00,,0833.6,5.01,0.00,31.2,28.5,00.0,39.4,32.1,34.9,0001.3,0016.05,0009.96,0009.16
2022-08-17 14:59:00,,0833.7,5.00,0.00,31.1,27.9,00.0,39.4,32.0,34.6,0001.2,0015.86,0009.90,0009.13
